Regional Weather Roundup
Issued by NWS Austin/San Antonio, TX

Home | Current Version | Previous Version | Text Only | Print | Product List | Glossary On
Versions: 1 2 3 4 5 6 7 8 9 10 11 12 13 14 15 16 17 18 19 20 21 22 23 24 25 26 27 28 29 30 31 32 33 34 35 36 37 38 39 40 41 42 43 44 45 46 47 48 49 50
000
ASUS44 KEWX 281401
RWREWX
SOUTH TEXAS REGIONAL WEATHER ROUNDUP
NATIONAL WEATHER SERVICE AUSTIN/SAN ANTONIO TX
900 AM CDT WED JUN 28 2017

NOTE: "FAIR" INDICATED FEW OR NO CLOUDS BELOW 12,000 FEET WITH NO
SIGNIFICANT WEATHER AND/OR OBSTRUCTIONS TO VISIBILITY.

* - THESE STATIONS ARE NOT NWS OR FAA STATIONS...AND ARE NOT SUBJECT
    TO NWS AND FAA QUALITY CONTROL.

TXZ171-172-183>190-281500-
TEXAS HILL COUNTRY AND EDWARDS PLATEAU

CITY           SKY/WX    TMP DP  RH WIND       PRES   REMARKS
JUNCTION       CLOUDY    72  67  84 CALM      29.98S
*LLANO         CLOUDY    73  70  88 CALM      30.01R
BURNET         CLOUDY    75  69  81 SW6       29.99S
*HORSESHOE BAY CLOUDY    73  70  89 MISG      29.97S
*KERRVILLE     MOSUNNY   72  69  90 CALM      29.98S
*FREDERICKSBRG CLOUDY    73  65  76 E3        29.99S
*ROCKSPRINGS   CLOUDY    72  72 100 CALM      30.02R
*BOERNE STAGE  CLOUDY    70  68  94 E3        29.99R
*CASTROVILLE   PTSUNNY   77  72  84 NE7       29.96R
HONDO          PTSUNNY   76  72  87 NE7       29.95R
*UVALDE        CLOUDY    73  70  92 E9        29.95S
DEL RIO        CLOUDY    73  70  90 SE8       29.94R
LAUGHLIN AFB   NOT AVBL
CARRIZO SPRGS  CLOUDY    73  70  88 E5        29.92R
*EAGLE PASS    CLOUDY    73  70  88 E6        29.94R
$$

TXZ173-191>194-202-209-217>225-228-281500-
CENTRAL AND SOUTH CENTRAL TEXAS

CITY           SKY/WX    TMP DP  RH WIND       PRES   REMARKS
GEORGETOWN     CLOUDY    75  70  83 E3        29.96R
AUSTIN/BERGSTM PTSUNNY   77  73  87 E7        29.94S
AUSTIN/MABRY   CLOUDY    76  71  85 VRB3      29.96R
*AUSTIN/EXEC     N/A     73  73 100 E3        29.96R
*LAGO VISTA    CLOUDY    74  73  93 E3        29.98R
SAN MARCOS     CLOUDY    73  73 100 NE6       29.96R FOG
NEW BRAUNFELS  CLOUDY    74  72  93 NE6       29.93R
RANDOLPH AFB   PTSUNNY   75  75 100 E6        29.94S
PT SAN ANTONIO CLOUDY    75  71  87 NE6       29.93R
SAN ANTONIO    CLOUDY    75  70  84 E6        29.95R
STINSON FIELD  CLOUDY    76  71  85 NE7       29.92R
*LA GRANGE     PTSUNNY   78  75  90 E6        29.92R
*GIDDINGS      CLOUDY    73  72  97 E7        29.95R
*GONZALES      MOSUNNY   79  76  91 E7        29.92R
$$

TXZ163>164-176>182-195>201-210>213-226-227-235-281500-
SOUTHEAST TEXAS

CITY           SKY/WX    TMP DP  RH WIND       PRES   REMARKS
COLLEGE STN    MOSUNNY   73  73 100 E9        29.95R
*BRYAN         CLOUDY    71  71 100 NE6       29.97R FOG
*CALDWELL      NOT AVBL
*CROCKETT      SUNNY     75  72  88 E3        30.00S
*BRENHAM       MOSUNNY   79  75  89 E6        29.94S
HUNTSVILLE     PTSUNNY   76  72  87 E6        29.96S
CONROE         CLOUDY    74  72  93 E7        29.95R
HOUSTON BUSH   MOSUNNY   78  73  84 NE12      29.92F
HOUSTON HOBBY  PTSUNNY   81  74  79 E10       29.90F
*HOUSTON SW AP CLOUDY    78  74  87 E6        29.91S
PEARLAND       CLOUDY    80  75  84 CALM      29.91
HOUSTON HOOKS  MOSUNNY   79  73  82 E7        29.93S
ELLINGTON FLD  NOT AVBL
SUGAR LAND     MOSUNNY   81  74  79 E10       29.90F
*HOUSTON EXEC  PTSUNNY   77  73  88 E10       29.93S
*CLEVELAND MUN SUNNY     78  73  86 CALM      29.96R
*WHARTON       MOSUNNY   77  73  85 NE6       29.91S
*COLUMBUS      PTSUNNY   76  73  88 NE7       29.92F
*EAGLE LAKE    PTSUNNY   79  76  90 E8        29.91F
$$

TXZ214>216-236>238-281500-
THE UPPER TEXAS COAST

CITY           SKY/WX    TMP DP  RH WIND       PRES   REMARKS
*ORANGE        PTSUNNY   79  74  85 E9        29.96S
PORT ARTHUR    PTSUNNY   77  73  87 NE10      29.93
GALVESTON      CLOUDY    80  75  84 E12       29.91R
ANGLETON       PTSUNNY   81  76  84 E5        29.89S
*BAY CITY      CLOUDY    78  75  92 E6        29.89S
PALACIOS       PTSUNNY   74  74 100 NE7       29.88S
$$

TXZ229>234-239>247-281500-
TEXAS COASTAL BEND AND RIO GRANDE PLAINS

CITY           SKY/WX    TMP DP  RH WIND       PRES   REMARKS
VICTORIA       CLOUDY    79  75  87 NE9       29.90S
*BEEVILLE      CLOUDY   N/A N/A N/A NE8       29.90S
ROCKPORT       MOSUNNY   81  75  82 NE13      29.87R
*PORT ARANSAS  PTSUNNY   80  76  89 N9        29.86S
*PORT LAVACA   MOSUNNY   79  75  89 CALM      29.89R
*INGLESIDE     CLOUDY    80  77  89 MISG      29.87R
CORPUS CHRISTI PTSUNNY   82  76  81 N10       29.87R
CORPUS NAS     MOSUNNY   82  79  90 N10       29.86R HX  92
*ROBSTOWN      CLOUDY    77  32  19 N8        29.88R
ALICE          CLOUDY    79  75  87 NE7       29.88R
KINGSVILLE NAS MOSUNNY   81  78  91 N9        29.87R
COTULLA        CLOUDY    75  71  87 E7        29.92R
*FAITH RANCH     N/A     75  73  94 VRB5      29.93R
LAREDO         MOSUNNY   78  73  84 NE9       29.91R
$$

TXZ248>255-281500-
DEEP SOUTH TEXAS

CITY           SKY/WX    TMP DP  RH WIND       PRES   REMARKS
BROWNSVILLE    CLOUDY    79  78  97 SE8       29.88R
PORT ISABEL    CLOUDY    82  77  84 S6        29.87R HX  90
*SOUTH PADRE   NOT AVBL
HARLINGEN      PTSUNNY   80  78  94 SE3       29.87R
*HEBBRONVILLE  CLOUDY    74  72  95 CALM      29.90R
MCALLEN        SUNNY     84  74  71 NE5       29.88R HX  91
*WESLACO       CLOUDY    79  75  87 E3        29.86S
FALFURRIAS     SUNNY     80  75  84 N3        29.87R
EDINBURG       CLOUDY    82  74  75 NE3       29.87S
*ZAPATA        CLOUDY    82  71  70 CALM      29.89R
$$

TXZ213>215-236>238-242>244-246-247-251-254-255-281500-
CMAN STATIONS

STATION/POSITION TIME  TEMP    WIND        PRES    WAVE
                       AIR SEA DIR/SP/G            HT/PER
                 (UTC) (F)     (DEG/KT/KT) (MB)    (FT/S)
SABINE PASS      1330   76 84   80/  6/  8 1015.2
SEA RIM ST PARK  1300   78     120/  7/  8 1013.9
NORTH JETTY/GLS  1330      83  130/  6/  9 1012.2
EAGLE POINT      1330   80 81  110/ 10/ 11 1012.6
MORGANS POINT    1330   77 83   50/ 11/ 12 1012.7
MISSION/ARANSAS  1300           30/ 11       N/A
PORT O`CONNOR    1330   79      40/ 12/ 13 1011.2
PORT ARANSAS     1300   79 84  340/  9/ 11 1011.0
MALAQUITE BEACH  1330   80 85  350/ 10/ 11 1010.3
PORT ISABEL      1330   80 86              1011.4
$$



USA.gov is the U.S. government's official web portal to all federal, state and local government web resources and services.